{"data":{"norad_id":65481,"epoch":"2026-05-25T00:39:25.421184Z","epoch_age_seconds":79433,"freshness":"FRESH","line1":"1 65481U 25195Z   26145.02737756  .00022522  00000+0  67573-3 0  9994","line2":"2 65481  53.1569 263.4328 0000566  79.3949 280.7117 15.34398721 41667","mean_motion":15.34398721,"eccentricity":5.66e-5,"inclination_deg":53.1569,"raan_deg":263.4328,"arg_perigee_deg":79.3949,"mean_anomaly_deg":280.7117,"bstar":0.00067573,"rev_number":4166,"period_min":93.847836308252,"perigee_km":462.31984989452,"apogee_km":463.09423344004,"semimajor_km":6840.8440416673,"source":"CELESTRAK","updated_at":"2026-05-25T13:38:20.816901Z"}}